WB8ZGM-13 Weather Reports


time (UTC)temp
C
wind
direction
speed
KPH
gust
KPH
rain 1hr
cm
rain 24hr
cm
rain mn
cm
humidity
%
barometer
mb
20260510071510 13 214 0.0 0.0 0.00 0.00 0.00 99 995.3
20260510070010 11 158 0.0 0.0 0.00 0.00 0.00 99 995.4
20260510064510 11 140 0.0 0.0 0.00 0.00 0.00 99 995.2
20260510063010 11 140 0.0 0.0 0.00 0.00 0.00 99 995.4
20260510061510 11 158 0.0 0.0 0.00 0.00 0.00 99 995.4
20260510060010 11 158 0.0 0.0 0.00 0.00 0.00 99 995.5
20260510054440 11 121 0.0 0.0 0.00 0.00 0.00 99 995.4
20260510052939 11 193 0.0 0.0 0.00 0.00 0.00 99 995.5
20260510051409 11 158 0.0 0.0 0.00 0.00 0.00 99 995.4
20260510045839 12 120 0.0 0.0 0.00 0.00 0.00 99 995.4
20260510044309 12 135 0.0 0.0 0.00 0.00 0.00 99 995.3
20260510042739 12 202 0.0 0.0 0.00 0.00 0.00 99 995.2
20260510041209 12 180 0.0 0.0 0.00 0.00 0.00 99 995.3
20260510035709 12 158 0.0 0.0 0.00 0.00 0.00 98 995.1
20260510034209 13 208 0.0 0.0 0.00 0.00 0.00 97 995.2
20260510032639 13 158 0.0 0.0 0.00 0.00 0.00 94 995.1
20260510031109 14 180 0.0 0.0 0.00 0.00 0.00 94 995.0
20260510025539 15 158 0.0 0.0 0.00 0.00 0.00 91 994.9
20260510024009 15 155 0.0 0.0 0.00 0.00 0.00 91 994.7
20260510022509 15 180 0.0 0.0 0.00 0.00 0.00 90 994.4
20260510021009 16 112 0.0 0.0 0.00 0.00 0.00 88 994.2
20260510015509 17 180 0.0 0.0 0.00 0.00 0.00 85 994.2
20260510014009 17 158 0.0 0.0 0.00 0.00 0.00 84 994.0
20260510012509 18 141 0.0 0.0 0.00 0.00 0.00 79 993.7
20260510011009 19 158 0.0 0.0 0.00 0.00 0.00 74 993.5
20260510005439 21 161 0.0 0.0 0.00 0.00 0.00 70 993.3
20260510003909 22 112 0.0 0.0 0.00 0.00 0.00 66 993.2
20260510002339 24 112 0.0 0.0 0.00 0.00 0.00 57 993.0
20260510000809 26 202 0.0 0.0 0.00 0.00 0.00 50 993.1
20260509235239 26 202 0.0 0.0 0.00 0.00 0.00 48 992.9
20260509233739 27 270 0.0 0.0 0.00 0.00 0.00 44 992.9
20260509232209 28 223 0.0 0.0 0.00 0.00 0.00 45 992.7
20260509230639 30 281 0.0 0.0 0.00 0.00 0.00 42 992.7
20260509225109 29 356 0.0 0.0 0.00 0.00 0.00 46 992.4
20260509223539 28 297 0.0 3.2 0.00 0.00 0.00 45 992.5
20260509222038 26 352 0.0 0.0 0.00 0.00 0.00 53 992.5
20260509220538 27 282 0.0 0.0 0.00 0.00 0.00 49 992.5
20260509215038 27 267 0.0 0.0 0.00 0.00 0.00 49 992.5
20260509213509 27 264 3.2 9.7 0.00 0.00 0.00 50 992.4
20260509212008 26 220 0.0 0.0 0.00 0.00 0.00 52 992.3
20260509210438 27 179 0.0 4.8 0.00 0.00 0.00 56 992.4
20260509204908 25 212 0.0 0.0 0.00 0.00 0.00 62 992.5
20260509203338 25 310 0.0 0.0 0.00 0.00 0.00 54 992.3
20260509201838 26 230 0.0 0.0 0.00 0.00 0.00 55 992.5
20260509200308 26 227 0.0 0.0 0.00 0.00 0.00 57 992.7
20260509194738 26 34 1.6 4.8 0.00 0.00 0.00 61 992.9
20260509193238 27 268 0.0 0.0 0.00 0.00 0.00 56 993.1
20260509191708 27 149 0.0 0.0 0.00 0.00 0.00 60 993.1
20260509190138 25 139 0.0 0.0 0.00 0.00 0.00 65 993.3
20260509184608 26 315 3.2 4.8 0.00 0.00 0.00 65 993.2
20260509183038 25 112 8.0 9.7 0.00 0.00 0.00 68 993.2
20260509181538 23 142 1.6 0.0 0.00 0.00 0.00 72 993.2
20260509180038 23 190 3.2 8.0 0.00 0.00 0.00 72 993.0
20260509174538 23 68 1.6 9.7 0.00 0.00 0.00 71 993.0
20260509173008 23 159 3.2 11.3 0.00 0.00 0.00 71 992.9
20260509171507 23 202 4.8 8.0 0.00 0.00 0.00 72 993.3
20260509170007 23 83 4.8 8.0 0.00 0.00 0.00 72 993.4
20260509164437 24 123 0.0 0.0 0.00 0.00 0.00 66 993.5
20260509162907 24 334 0.0 0.0 0.00 0.00 0.00 69 993.5
20260509161337 24 196 1.6 0.0 0.00 0.00 0.00 69 993.5
20260509155837 22 210 4.8 9.7 0.00 0.00 0.00 72 993.5
20260509154337 21 206 0.0 0.0 0.00 0.00 0.00 77 993.6
20260509152807 21 243 3.2 3.2 0.00 0.00 0.00 77 993.3
20260509151307 21 294 3.2 4.8 0.00 0.00 0.00 79 993.2
20260509145737 21 265 0.0 3.2 0.00 0.00 0.00 78 993.1
20260509144207 20 114 3.2 3.2 0.00 0.00 0.00 80 993.0
20260509142637 20 117 4.8 8.0 0.00 0.00 0.00 80 993.0
20260509141107 20 239 8.0 9.7 0.00 0.00 0.00 79 992.8
20260509135607 21 150 0.0 0.0 0.00 0.00 0.00 77 992.9
20260509134037 21 198 3.2 12.9 0.00 0.00 0.00 77 992.8
20260509132537 19 234 8.0 9.7 0.00 0.00 0.00 82 992.8
20260509131037 18 224 4.8 11.3 0.00 0.00 0.00 84 992.8
20260509125507 17 223 0.0 0.0 0.00 0.00 0.00 87 993.0
20260509124007 16 228 0.0 0.0 0.00 0.00 0.00 90 992.9
20260509122437 15 180 4.8 9.7 0.00 0.00 0.00 94 992.9
20260509120907 13 155 4.8 3.2 0.00 0.00 0.00 99 992.7
20260509115407 12 12 0.0 0.0 0.00 0.00 0.00 99 992.5
20260509113907 11 145 0.0 0.0 0.00 0.00 0.00 99 992.3
20260509112407 11 270 0.0 0.0 0.00 0.00 0.00 99 992.1
20260509110906 11 235 0.0 0.0 0.00 0.00 0.00 99 992.0
20260509105407 11 197 0.0 0.0 0.00 0.00 0.00 99 992.0
20260509103836 11 152 0.0 0.0 0.00 0.00 0.00 99 992.3
20260509102306 11 180 0.0 0.0 0.00 0.00 0.00 99 992.3
20260509100736 11 180 0.0 0.0 0.00 0.00 0.00 99 992.5
20260509095236 11 180 0.0 0.0 0.00 0.00 0.00 99 992.6
20260509093706 11 168 0.0 0.0 0.00 0.00 0.00 99 992.4
20260509092136 11 173 0.0 0.0 0.00 0.00 0.00 99 992.7
20260509090636 11 180 0.0 0.0 0.00 0.00 0.00 99 992.8
20260509085136 11 180 0.0 0.0 0.00 0.00 0.00 99 992.9
20260509083636 11 202 0.0 0.0 0.00 0.00 0.00 99 992.5
20260509082106 10 180 0.0 0.0 0.00 0.00 0.00 99 992.2
20260509080536 10 180 0.0 0.0 0.00 0.00 0.00 99 992.3
20260509075006 10 202 0.0 0.0 0.00 0.00 0.00 99 992.3
20260509073436 10 180 0.0 0.0 0.00 0.00 0.00 99 992.2